Location: Palomar Mountain Lodge
(33.3110°N, 116.8495°W)
Time: 14:48:19
(UTC-07:00)

Cosmos 1812 - Pass Details

Date: 19 May 2017
Orbit: 520 x 525 km, 82.5° (Epoch: 24 May)

Event Time Altitude Azimuth Distance (km) Brightness Sun altitude
Rises 20:06:35 0° 163° (SSE) 2,637 5.9 -5.1°
Reaches altitude 10° 20:08:53 10° 153° (SSE) 1,753 4.9 -5.5°
Maximum altitude 20:12:16 30° 91° (E) 961 3.6 -6.2°
Drops below altitude 10° 20:15:40 10° 30° (NNE) 1,763 5.4 -6.8°
Sets 20:17:59 0° 19° (NNE) 2,656 6.5 -7.2°
